Air Quality Table

TIMESTAMP NO2 SO2 O3 PM10 TEMP HUM AIRPRES WS WD NO
2021-08-04 01:00 6.32 ug/m3 1.13 ug/m3 98.2 ug/m3 80.53 ug/m3 28.28 C 89.72 % 1,007.87 mbar 2.23 m/s 103.79 Deg 0.64 ug/m3
2021-08-03 17:00 5.28 ug/m3 1.21 ug/m3 87.01 ug/m3 24.47 ug/m3 31.7 C 71.12 % 1,007.58 mbar 2.52 m/s 82.49 Deg 0.98 ug/m3
2021-08-03 09:00 10.46 ug/m3 1.23 ug/m3 69.56 ug/m3 96.97 ug/m3 28.22 C 91.7 % 1,006.27 mbar 1.56 m/s 108.23 Deg 0.81 ug/m3
2021-08-03 01:00 17.46 ug/m3 1.42 ug/m3 73.23 ug/m3 74.84 ug/m3 31.04 C 62.56 % 1,006.05 mbar 1.07 m/s 92.08 Deg 1.01 ug/m3
2021-08-02 17:00 12.71 ug/m3 1.43 ug/m3 99.19 ug/m3 67.44 ug/m3 34.15 C 48.68 % 1,005.47 mbar 2.24 m/s 157.94 Deg 2.29 ug/m3
2021-08-02 09:00 41.64 ug/m3 1.6 ug/m3 46.26 ug/m3 65.88 ug/m3 30.27 C 53.41 % 1,004.64 mbar 1.28 m/s 241.43 Deg 11.69 ug/m3
2021-08-02 01:00 18.86 ug/m3 1.51 ug/m3 64.99 ug/m3 87.13 ug/m3 31.04 C 61.77 % 1,004.51 mbar 1.96 m/s 168.8 Deg 1.16 ug/m3
2021-08-01 17:00 5.17 ug/m3 1.58 ug/m3 96.11 ug/m3 50.12 ug/m3 34.81 C 35.64 % 1,004.20 mbar 3.1 m/s 192.88 Deg 0.88 ug/m3
2021-08-01 09:00 24.65 ug/m3 1.54 ug/m3 52.37 ug/m3 63.42 ug/m3 29.9 C 58.66 % 1,003.64 mbar 1.66 m/s 221.79 Deg 3.14 ug/m3
2021-08-01 01:00 16.42 ug/m3 1.35 ug/m3 74.41 ug/m3 65.44 ug/m3 29.91 C 70.89 % 1,003.86 mbar 1.25 m/s 163.92 Deg 0.98 ug/m3
2021-07-31 17:00 6.51 ug/m3 1.38 ug/m3 110.76 ug/m3 64.17 ug/m3 33.11 C 57.92 % 1,003.51 mbar 2.31 m/s 102.53 Deg 0.99 ug/m3
2021-07-31 09:00 13.01 ug/m3 1.46 ug/m3 78.05 ug/m3 44.16 ug/m3 29.04 C 68.28 % 1,003.74 mbar 2.25 m/s 270.04 Deg 1.68 ug/m3
2021-07-31 01:00 7.31 ug/m3 1.78 ug/m3 64.79 ug/m3 62.42 ug/m3 28.93 C 69.44 % 1,004.83 mbar 2.02 m/s 247.16 Deg 0.74 ug/m3
2021-07-30 17:00 11.79 ug/m3 2.23 ug/m3 86.48 ug/m3 59.97 ug/m3 35.21 C 29.79 % 1,005.99 mbar 2.79 m/s 231.93 Deg 2.06 ug/m3
2021-07-30 09:00 37.29 ug/m3 2.1 ug/m3 54.08 ug/m3 45.06 ug/m3 29.71 C 35.24 % 1,006.33 mbar 1.17 m/s 289.02 Deg 5.96 ug/m3
2021-07-30 01:00 24.96 ug/m3 1.97 ug/m3 69.04 ug/m3 49.37 ug/m3 31.4 C 34.77 % 1,006.67 mbar 1.1 m/s 270.92 Deg 1.24 ug/m3
2021-07-29 17:00 20.22 ug/m3 2.02 ug/m3 96.56 ug/m3 43.14 ug/m3 34.15 C 31.13 % 1,007.02 mbar 3.42 m/s 201.09 Deg 3.79 ug/m3
2021-07-29 09:00 39.82 ug/m3 2.47 ug/m3 54.25 ug/m3 33.82 ug/m3 29.42 C 34.92 % 1,006.79 mbar 1.91 m/s 302.63 Deg 8.01 ug/m3
2021-07-29 01:00 23.27 ug/m3 1.75 ug/m3 78.96 ug/m3 36.52 ug/m3 29.44 C 45.93 % 1,007.43 mbar 2.49 m/s 257.1 Deg 1.06 ug/m3
2021-07-28 17:00 12.25 ug/m3 2.13 ug/m3 108.4 ug/m3 24.01 ug/m3 32.59 C 30.56 % 1,008.03 mbar 2.6 m/s 103.85 Deg 1.76 ug/m3

It is to be noted that the data is provisional and subject to quality assurance procedures. For validated data kindly refer your request to contact.air@era.org.mt